When you browse on this site, cookies collect data to enhance your experience and personalize the content and advertising you see.
Visit our Privacy Policy to learn more. By continuing to use the site, you agree to this use of cookies and data.
  • In Hungary
  • List of Countries
  • For 7 days
  • Water Temperature
  • Satellite Maps
  • Weather Map
  • News
  • Weather Widgets
  • user-avatar
    Login

    Hourly Weather Borek

    Today, 18 January, Friday

    Time Temperature Precipitation Wind Pressure Humidity
    00:00 +2°C° 0.2 mm 6 mps 747 mmHg 80%
    01:00 +1°C° 0.2 mm 6 mps 748 mmHg 79%
    02:00 +1°C° 0.3 mm 6 mps 749 mmHg 78%
    03:00 -1°C° 0.3 mm 6 mps 750 mmHg 76%
    04:00 -2°C° 0.3 mm 6 mps 750 mmHg 75%
    05:00 -2°C° 0 mm 5 mps 752 mmHg 76%
    06:00 -2°C° 0 mm 5 mps 753 mmHg 76%
    07:00 -4°C° 0 mm 5 mps 754 mmHg 77%
    08:00 -2°C° 0 mm 5 mps 755 mmHg 75%
    09:00 -2°C° 0 mm 5 mps 756 mmHg 73%
    10:00 -2°C° 0 mm 5 mps 757 mmHg 71%
    11:00 -1°C° 0 mm 5 mps 758 mmHg 67%
    12:00 -1°C° 0 mm 4 mps 758 mmHg 64%
    13:00 -1°C° 0 mm 4 mps 759 mmHg 61%
    14:00 -1°C° 0 mm 4 mps 759 mmHg 64%
    15:00 0°C° 0 mm 3 mps 759 mmHg 68%
    16:00 -1°C° 0 mm 3 mps 759 mmHg 71%
    17:00 -1°C° 0 mm 3 mps 760 mmHg 72%
    18:00 -1°C° 0 mm 3 mps 760 mmHg 72%
    19:00 -1°C° 0 mm 3 mps 760 mmHg 72%
    20:00 -2°C° 0 mm 4 mps 761 mmHg 75%
    21:00 -2°C° 0 mm 4 mps 761 mmHg 78%
    22:00 -2°C° 0 mm 4 mps 761 mmHg 80%
    23:00 -2°C° 0 mm 3 mps 761 mmHg 83%

    Tomorrow, 19 January, Saturday

    Time Temperature Precipitation Wind Pressure Humidity
    00:00 -2°C° 0 mm 3 mps 761 mmHg 85%
    01:00 -2°C° 0 mm 3 mps 762 mmHg 88%
    02:00 -2°C° 0 mm 2 mps 762 mmHg 89%
    03:00 -2°C° 0 mm 2 mps 762 mmHg 89%
    04:00 -2°C° 0 mm 2 mps 762 mmHg 90%
    05:00 -2°C° 0 mm 2 mps 762 mmHg 90%
    06:00 -2°C° 0 mm 2 mps 762 mmHg 90%
    07:00 -2°C° 0 mm 2 mps 762 mmHg 90%
    08:00 -2°C° 0 mm 2 mps 762 mmHg 87%
    09:00 -2°C° 0 mm 2 mps 763 mmHg 84%
    10:00 -1°C° 0 mm 2 mps 763 mmHg 81%
    11:00 +2°C° 0 mm 1 mps 763 mmHg 76%
    12:00 +2°C° 0 mm 1 mps 763 mmHg 72%
    13:00 +3°C° 0 mm 1 mps 762 mmHg 67%
    14:00 +3°C° 0 mm 1 mps 762 mmHg 71%
    15:00 +2°C° 0 mm 1 mps 762 mmHg 74%
    16:00 +1°C° 0 mm 1 mps 762 mmHg 77%
    17:00 +1°C° 0 mm 1 mps 762 mmHg 79%
    18:00 +1°C° 0 mm 1 mps 762 mmHg 80%
    19:00 0°C° 0 mm 1 mps 762 mmHg 82%
    20:00 0°C° 0 mm 1 mps 762 mmHg 82%
    21:00 0°C° 0 mm 1 mps 762 mmHg 81%
    22:00 0°C° 0 mm 1 mps 762 mmHg 81%
    23:00 0°C° 0 mm 1 mps 761 mmHg 80%

    Day after tomorrow, 20 January, Sunday

    Time Temperature Precipitation Wind Pressure Humidity
    00:00 0°C° 0 mm 1 mps 761 mmHg 80%
    01:00 0°C° 0 mm 1 mps 761 mmHg 79%
    02:00 0°C° 0 mm 1 mps 761 mmHg 78%
    03:00 -1°C° 0 mm 1 mps 761 mmHg 78%
    04:00 -1°C° 0 mm 1 mps 760 mmHg 77%
    05:00 -1°C° 0 mm 1 mps 760 mmHg 76%
    06:00 -1°C° 0 mm 1 mps 760 mmHg 76%
    07:00 -1°C° 0 mm 1 mps 760 mmHg 75%
    08:00 -1°C° 0 mm 1 mps 761 mmHg 72%
    09:00 0°C° 0 mm 1 mps 761 mmHg 69%
    10:00 0°C° 0 mm 1 mps 761 mmHg 66%
    11:00 +1°C° 0 mm 1 mps 761 mmHg 62%
    12:00 +1°C° 0 mm 0 mps 761 mmHg 58%
    13:00 +1°C° 0 mm 0 mps 761 mmHg 54%
    14:00 +2°C° 0 mm 1 mps 761 mmHg 58%
    15:00 +1°C° 0 mm 1 mps 761 mmHg 62%
    16:00 0°C° 0 mm 1 mps 761 mmHg 66%
    17:00 0°C° 0 mm 1 mps 762 mmHg 69%
    18:00 0°C° 0 mm 1 mps 762 mmHg 72%
    19:00 -1°C° 0 mm 1 mps 762 mmHg 74%
    20:00 -1°C° 0 mm 1 mps 763 mmHg 75%
    21:00 -1°C° 0 mm 1 mps 763 mmHg 76%
    22:00 -1°C° 0 mm 1 mps 763 mmHg 77%
    23:00 -1°C° 0 mm 1 mps 763 mmHg 77%

    21 January, Monday

    Time Temperature Precipitation Wind Pressure Humidity
    00:00 -1°C° 0 mm 1 mps 764 mmHg 78%
    01:00 -1°C° 0 mm 1 mps 764 mmHg 78%
    02:00 -1°C° 0 mm 1 mps 764 mmHg 78%
    03:00 -1°C° 0 mm 1 mps 764 mmHg 78%
    04:00 -1°C° 0 mm 1 mps 764 mmHg 78%
    05:00 -1°C° 0 mm 1 mps 764 mmHg 78%
    06:00 -1°C° 0 mm 1 mps 764 mmHg 77%
    07:00 -1°C° 0 mm 1 mps 765 mmHg 77%
    08:00 -1°C° 0 mm 1 mps 765 mmHg 75%
    09:00 0°C° 0 mm 1 mps 765 mmHg 73%
    10:00 0°C° 0 mm 1 mps 765 mmHg 71%
    11:00 +1°C° 0 mm 1 mps 765 mmHg 68%
    12:00 -1°C° 0 mm 2 mps 765 mmHg 65%
    13:00 +1°C° 0 mm 2 mps 765 mmHg 62%
    14:00 -1°C° 0 mm 2 mps 764 mmHg 64%
    15:00 -1°C° 0 mm 2 mps 764 mmHg 67%
    16:00 -2°C° 0 mm 2 mps 764 mmHg 69%
    17:00 -2°C° 0 mm 2 mps 763 mmHg 68%
    18:00 -2°C° 0 mm 2 mps 763 mmHg 67%
    19:00 -2°C° 0 mm 2 mps 763 mmHg 67%
    20:00 -2°C° 0 mm 2 mps 763 mmHg 65%
    21:00 -2°C° 0 mm 2 mps 763 mmHg 64%
    22:00 -2°C° 0 mm 2 mps 763 mmHg 62%
    23:00 -2°C° 0 mm 2 mps 762 mmHg 64%

    22 January, Tuesday

    Time Temperature Precipitation Wind Pressure Humidity
    00:00 -2°C° 0 mm 2 mps 762 mmHg 66%
    01:00 -3°C° 0 mm 2 mps 761 mmHg 68%
    02:00 -3°C° 0 mm 2 mps 761 mmHg 70%
    03:00 -3°C° 0 mm 2 mps 760 mmHg 72%
    04:00 -3°C° 0 mm 2 mps 760 mmHg 74%
    05:00 -3°C° 0 mm 2 mps 759 mmHg 76%
    06:00 -3°C° 0 mm 2 mps 759 mmHg 77%
    07:00 -4°C° 0 mm 2 mps 759 mmHg 78%
    08:00 -3°C° 0 mm 2 mps 759 mmHg 76%
    09:00 -3°C° 0 mm 2 mps 759 mmHg 73%
    10:00 -2°C° 0 mm 2 mps 759 mmHg 71%
    11:00 -2°C° 0 mm 2 mps 758 mmHg 67%
    12:00 -1°C° 0 mm 2 mps 758 mmHg 64%
    13:00 +1°C° 0 mm 2 mps 757 mmHg 60%
    14:00 -1°C° 0 mm 2 mps 757 mmHg 62%
    15:00 -1°C° 0 mm 2 mps 756 mmHg 64%
    16:00 -2°C° 0 mm 2 mps 756 mmHg 65%
    17:00 -2°C° 0 mm 3 mps 756 mmHg 64%
    18:00 -2°C° 0 mm 3 mps 755 mmHg 63%
    19:00 -4°C° 0 mm 3 mps 755 mmHg 62%
    20:00 -4°C° 0 mm 3 mps 755 mmHg 61%
    21:00 -4°C° 0 mm 3 mps 755 mmHg 60%
    22:00 -4°C° 0 mm 3 mps 755 mmHg 59%
    23:00 -4°C° 0 mm 3 mps 755 mmHg 62%

    23 January, Wednesday

    Time Temperature Precipitation Wind Pressure Humidity
    00:00 -4°C° 0 mm 3 mps 754 mmHg 64%
    01:00 -4°C° 0 mm 3 mps 754 mmHg 67%
    02:00 -4°C° 0 mm 4 mps 754 mmHg 68%
    03:00 -4°C° 0 mm 4 mps 753 mmHg 69%
    04:00 -5°C° 0 mm 4 mps 753 mmHg 70%
    05:00 -5°C° 0 mm 4 mps 753 mmHg 70%
    06:00 -5°C° 0 mm 4 mps 753 mmHg 70%
    07:00 -5°C° 0 mm 4 mps 753 mmHg 71%
    08:00 -5°C° 0 mm 4 mps 753 mmHg 71%
    09:00 -5°C° 0 mm 5 mps 753 mmHg 71%
    10:00 -5°C° 0 mm 5 mps 753 mmHg 71%
    11:00 -4°C° 0 mm 5 mps 753 mmHg 67%
    12:00 -4°C° 0 mm 5 mps 753 mmHg 63%
    13:00 -2°C° 0 mm 5 mps 752 mmHg 60%
    14:00 -2°C° 0 mm 5 mps 752 mmHg 60%
    15:00 -3°C° 0 mm 4 mps 752 mmHg 61%
    16:00 -3°C° 0 mm 4 mps 752 mmHg 62%
    17:00 -3°C° 0 mm 4 mps 753 mmHg 62%
    18:00 -5°C° 0 mm 5 mps 753 mmHg 63%
    19:00 -5°C° 0 mm 5 mps 753 mmHg 64%
    20:00 -5°C° 0 mm 5 mps 753 mmHg 66%
    21:00 -4°C° 0 mm 4 mps 754 mmHg 67%
    22:00 -5°C° 0 mm 4 mps 754 mmHg 69%
    23:00 -5°C° 0 mm 4 mps 754 mmHg 71%
    Show more